User: anonymous   Login
Location: Altleiningen
(49.5078°N, 8.0741°E)
Time: 00:16:05
(UTC+00:00)
Language:

Cosmos 2218 Rocket - Orbit

View from above orbital plane
View from above orbital plane
View from above satellite
View from above satellite

Ground track
Ground track

The orbit data is extracted from the following two-line orbital elements,

1 22208U 92073B   21136.22786093  .00000039  00000-0  24445-4 0  9990
2 22208  82.9216  40.3185 0034743  14.5277 151.8498 13.75161754432142
Epoch (UTC): 16 May 2021 05:28:07
Eccentricity: 0.0034743
inclination: 82.9216°
perigee height: 955 km
apogee height: 1006 km
right ascension of ascending node: 40.3185°
argument of perigee: 14.5277°
revolutions per day: 13.75161754
mean anomaly at epoch: 151.8498°
orbit number at epoch: 43214

The dashed part of the orbit path shows where the satellite is in the earth's shadow,  

DLR